This demonstration page uses our WeatherBlox Daily Observations layout. Learn more.

39.92423, -83.80882

Hourly Observations for August 25, 2018

Temp ( °F °C ) Dew Point ( °F °C ) Humidity (%) Winds ( mph kmh ) Pressure ( in mb ) Visibility ( mi km ) Precip ( " mm )
12:56 am 00:56 Mostly Cloudy 67 19.4 63 17.2 87 87 S 7 11 30.1 1019 10 16.0934 0 0
1:56 am 01:56 Cloudy 68 20 64 17.8 87 87 VRB 5 7 30.1 1019 10 16.0934 0 0
2:56 am 02:56 Cloudy 68 20 64 17.8 87 87 S 7 11 30.1 1019 10 16.0934 0 0.0254
3:56 am 03:56 Cloudy 68 20 64 17.8 87 87 S 7 11 30.11 1020 10 16.0934 0 0
4:56 am 04:56 Cloudy 69 20.6 63 17.2 81 81 S 8 13 30.1 1019 10 16.0934 0 0
6:56 am 06:56 Cloudy 69 20.6 62 16.7 78 78 S 8 13 30.1 1019 10 16.0934 0 0
7:56 am 07:56 Partly Cloudy 69 20.6 62 16.7 78 78 S 9 15 30.1 1019 10 16.0934 0 0
8:56 am 08:56 Mostly Cloudy 70 21.1 63 17.2 79 79 S 9 15 30.1 1019 10 16.0934 0 0
9:56 am 09:56 Sunny 71 21.7 64 17.8 79 79 S 9 15 30.1 1019 10 16.0934 0 0
10:56 am 10:56 Mostly Cloudy 74 23.3 67 19.4 79 79 SSW 9 15 30.13 1020 10 16.0934 0 0
11:56 am 11:56 Mostly Cloudy 75 23.9 68 20 79 79 SW 12 19 30.14 1021 10 16.0934 0 0
12:36 pm 12:36 Cloudy 75 24 70 21 83 83 WSW 14 22 30.12 1020 10 16.0934 0 0
12:56 pm 12:56 Cloudy 75 23.9 69 20.6 82 82 WSW 9 15 30.14 1021 10 16.0934 0 0
1:56 pm 13:56 Mostly Cloudy 76 24.4 69 20.6 79 79 SW 13 20 30.13 1020 10 16.0934 0 0
2:43 pm 14:43 Partly Cloudy 73 23 70 21 89 89 SSW 13 20 30.09 1019 10 16.0934 0 0
2:56 pm 14:56 Sunny 74 23.3 69 20.6 85 85 SSW 8 13 30.11 1020 10 16.0934 0 0
3:27 pm 15:27 Mostly Cloudy 73 23 70 21 89 89 SW 12 19 30.09 1019 9 14.48406 0 0
3:56 pm 15:56 Mostly Cloudy with Light Rain 73 22.8 70 21.1 90 90 S 12 19 30.07 1018 10 16.0934 0 0.0254
4:06 pm 16:06 Mostly Cloudy with Light Rain 73 23 70 21 89 89 S 12 19 30.03 1017 9 14.48406 0 0.0254
4:56 pm 16:56 Sunny 74 23.3 69 20.6 85 85 S 12 19 30.04 1017 10 16.0934 0 0.0254
5:56 pm 17:56 Mostly Sunny 75 23.9 70 21.1 84 84 SW 8 13 30.06 1018 10 16.0934 0 0.0254
6:26 pm 18:26 Cloudy with Nearby Thunderstorms 72 22 70 21 94 94 SSW 16 26 30.03 1017 7 11.26538 0 0.0254
6:38 pm 18:38 Partly Cloudy with Nearby Thunderstorms 70 21 70 21 100 100 S 8 13 30.03 1017 10 16.0934 0 0.0254
6:56 pm 18:56 Sunny with Nearby Thunderstorms 71 21.7 70 21.1 96 96 SSW 10 17 30.04 1017 10 16.0934 0 0.0254
7:04 pm 19:04 Sunny 72 22 70 21 94 94 SSW 9 15 30.03 1017 10 16.0934 0 0
7:56 pm 19:56 Cloudy 72 22.2 71 21.7 97 97 S 7 11 30.05 1018 10 16.0934 0 0
8:56 pm 20:56 Mostly Cloudy 71 21.7 70 21.1 96 96 SSE 3 6 30.08 1019 9 14.48406 0 0
9:56 pm 21:56 Mostly Cloudy 70 21.1 70 21.1 100 100 SE 5 7 30.08 1019 9 14.48406 0 0
10:56 pm 22:56 Mostly Cloudy with Mist and Fog 69 20.6 69 20.6 100 100 SSE 7 11 30.09 1019 6 9.65604 0 0
11:56 pm 23:56 Cloudy 71 21.7 71 21.7 100 100 S 3 6 30.09 1019 9 14.48406 0 0

Powered by AerisWeather